Wind_Speed
22 21 21 21 20 20 20 20 20 20 20 20 20 20 21 21 21 21 21 20 20 20 19 18 18 17 17 16 16 17 18 18 17 16 16 16 16 15 13 11 9 9 9 7 6 6 8 10 11 11 12 11 11 10 9 8 8 8 8 8 9 10 11 13 15 16 18 20 20 21 21 22 22 24 25 26 26 26 26 27 28 28 28 28 28
22 21 21 20 20 20 20 20 20 20 20 20 20 21 22 22 23 23 23 22 21 21 20 20 19 19 18 17 18 18 19 20 19 18 17 17 17 16 15 13 11 10 10 9 8 8 9 11 12 13 13 13 13 12 11 10 10 10 10 10 10 10 11 13 16 17 19 21 23 24 24 24 23 24 26 27 28 28 28 28 29 29 28 28 28
23 22 21 20 20 20 20 19 18 18 18 19 19 20 22 23 24 24 24 24 24 22 22 21 21 21 20 19 19 20 20 21 21 20 18 18 18 17 17 15 12 11 11 10 10 9 10 12 13 13 13 13 13 12 11 11 12 12 13 13 13 13 14 15 17 19 21 22 24 25 26 26 26 26 27 28 28 28 28 28 29 28 27 28 28
25 23 21 21 21 21 19 18 17 16 16 17 18 20 21 22 23 24 24 24 24 24 24 23 23 22 22 21 21 22 22 22 23 22 21 20 19 19 18 17 15 13 12 12 11 11 11 13 14 14 13 12 11 11 11 11 13 13 13 14 15 15 16 17 19 21 23 25 27 27 27 27 28 28 29 29 29 29 30 30 29 28 27 28 29
26 24 22 22 22 20 19 17 16 15 16 16 17 18 19 20 21 22 22 22 23 24 25 24 24 23 23 24 23 23 24 24 24 23 23 22 21 20 20 19 17 15 14 13 12 12 12 14 15 14 12 11 10 11 12 13 13 13 13 13 14 16 18 20 22 24 27 29 31 32 31 30 29 29 29 29 30 30 31 32 31 29 28 29 30
26 24 24 23 21 20 18 17 15 15 16 15 15 15 15 16 17 18 19 19 20 22 23 24 24 24 25 26 26 25 25 26 26 25 25 24 23 21 21 20 20 18 16 14 13 13 13 14 15 15 12 10 10 11 13 14 14 14 13 13 16 18 21 23 25 28 30 33 34 35 34 32 30 30 30 29 30 31 32 32 32 31 31 31 32
27 25 24 23 21 19 18 17 16 16 15 14 12 11 10 11 12 13 14 15 15 17 18 19 20 22 24 25 25 25 26 27 27 27 27 26 24 23 22 22 22 21 19 17 15 14 14 15 16 16 14 12 12 12 14 15 15 14 15 17 19 21 23 25 27 29 31 33 35 35 34 32 30 30 30 30 31 32 33 33 33 32 33 33 34
28 25 25 23 21 19 19 19 18 17 15 14 11 9 7 7 7 8 8 9 10 12 13 14 15 17 19 20 21 22 24 25 26 27 27 26 25 24 23 23 24 24 23 20 17 15 15 16 18 18 16 14 15 17 18 18 16 15 16 18 21 23 24 25 28 30 31 32 33 33 32 30 29 30 30 31 33 34 34 34 34 34 35 35 36
27 26 25 23 21 20 21 21 19 18 16 14 12 10 8 7 6 5 5 5 5 7 8 10 12 13 14 15 16 18 19 21 23 25 27 26 26 26 26 25 26 26 25 24 21 18 17 18 19 20 19 17 18 21 22 20 17 16 17 19 21 23 25 26 28 31 31 31 31 31 30 29 29 30 31 32 34 34 34 35 36 36 37 37 37
26 25 24 22 22 23 23 22 20 19 17 15 14 13 11 9 8 6 5 5 4 4 5 6 9 11 12 14 15 15 16 17 20 24 26 27 26 27 28 28 28 28 27 26 24 21 19 19 20 21 20 19 20 22 21 18 16 16 17 19 21 23 25 26 28 31 32 32 31 31 31 30 31 31 33 34 34 35 35 35 37 37 38 39 39
25 24 23 23 24 24 23 22 20 19 17 17 17 16 14 13 11 9 8 7 6 6 5 5 6 8 10 13 15 16 16 15 17 21 24 26 27 28 29 30 30 29 29 28 26 24 22 21 22 22 22 21 21 22 20 17 15 16 17 19 22 24 26 27 29 31 33 33 33 32 32 33 33 34 35 35 35 35 35 36 37 38 39 40 41
24 23 23 24 25 24 23 22 21 19 18 17 18 18 17 16 14 13 11 10 9 9 8 7 7 7 8 10 12 15 17 17 18 20 22 24 26 27 29 31 32 31 30 29 29 27 26 25 24 24 23 23 22 22 21 18 17 16 18 20 22 25 27 28 30 32 34 35 36 35 35 35 35 35 35 35 35 35 35 36 38 39 39 40 42
23 24 24 25 25 24 23 22 21 19 18 19 19 20 20 19 17 16 15 14 14 12 10 10 10 10 9 10 11 13 15 17 20 22 23 24 25 27 30 31 32 33 32 31 31 30 29 28 27 26 25 25 24 22 22 21 19 18 19 22 24 26 28 30 32 34 36 37 38 38 37 37 37 37 37 36 36 35 36 37 38 39 40 41 42
23 24 25 26 25 24 24 23 21 20 21 21 22 21 21 20 19 19 18 18 18 16 14 14 14 13 13 13 13 14 14 15 18 22 25 26 27 28 30 32 33 34 33 32 32 32 31 30 29 27 27 27 25 24 23 23 22 20 21 24 26 27 29 32 34 36 37 39 39 40 39 38 38 38 38 37 37 36 37 38 39 40 41 42 42
23 24 25 26 25 24 24 23 23 22 22 23 23 22 23 23 22 22 21 21 21 21 21 20 18 17 17 17 17 17 17 17 18 21 24 26 29 31 32 33 34 34 34 34 33 33 32 32 30 29 28 28 27 27 26 26 25 23 23 26 28 29 31 33 36 37 38 40 41 41 41 40 40 40 39 38 38 37 38 39 40 42 42 43 43
22 23 24 24 23 23 23 23 24 24 24 24 24 24 25 25 25 25 24 24 25 26 27 26 23 22 23 23 23 22 22 22 22 23 25 27 29 31 34 35 35 34 34 33 33 34 35 34 32 31 30 30 29 30 29 28 27 26 26 29 31 32 33 35 37 38 39 41 41 41 41 41 41 41 40 40 39 38 39 40 41 43 43 43 43
21 21 22 23 22 22 23 24 26 27 27 27 26 26 26 25 25 26 27 27 28 29 29 30 30 30 29 29 29 28 27 27 27 28 29 31 32 32 33 35 36 36 35 34 34 35 37 36 33 33 33 32 31 32 32 31 29 28 29 32 34 35 36 37 37 39 40 41 42 42 42 43 43 42 41 41 40 39 40 41 42 43 43 43 43
23 22 22 23 23 23 25 27 29 29 29 29 29 29 28 28 28 30 31 30 30 31 31 30 31 32 33 34 33 32 32 32 32 33 34 35 36 36 36 36 36 36 36 34 34 36 37 37 35 35 35 33 33 35 35 33 31 30 31 34 36 38 39 39 39 40 42 42 43 43 43 44 44 43 42 41 40 40 40 41 42 43 43 43 42
27 25 24 23 24 25 27 27 28 28 28 29 32 34 34 33 33 34 34 33 33 33 32 31 30 32 34 35 35 34 34 34 35 35 37 39 40 41 41 41 39 38 37 36 35 36 38 38 37 36 37 36 36 38 39 36 34 33 34 37 38 40 41 41 40 42 43 43 44 44 44 45 46 45 43 42 41 40 41 42 43 44 43 42 41
31 29 27 25 25 27 27 27 26 26 27 30 34 37 37 37 39 40 39 37 36 35 34 32 31 32 34 35 36 37 36 36 36 35 36 40 43 45 46 46 43 41 40 39 37 36 38 39 39 38 39 38 38 41 42 39 36 36 37 39 41 42 43 43 43 43 45 45 46 46 45 46 47 46 44 42 41 41 41 42 43 43 43 42 40
33 32 29 28 28 28 29 29 29 28 29 31 35 36 35 35 38 40 40 38 37 37 36 34 34 33 34 36 37 37 37 37 37 35 34 35 38 42 46 48 47 46 45 43 42 40 40 40 39 40 41 41 42 44 45 42 39 39 40 41 43 44 45 46 46 46 47 47 47 48 47 47 49 49 46 42 41 41 41 42 43 43 43 41 39
33 32 31 31 31 31 32 33 33 32 32 34 36 35 33 32 33 34 35 34 34 34 35 35 35 35 35 36 38 38 37 37 38 36 34 33 34 37 41 44 46 49 50 48 46 46 45 43 41 41 43 44 46 47 47 45 42 42 43 45 46 47 47 48 49 48 49 50 49 50 49 49 50 51 47 43 41 41 41 41 42 42 42 40 39
32 32 33 34 33 33 34 35 36 36 37 38 38 36 33 32 31 32 32 33 34 35 36 36 37 38 38 39 40 40 40 40 40 39 37 36 36 37 38 40 44 48 52 52 51 51 51 49 45 43 44 46 49 50 49 48 46 45 46 48 50 50 50 51 51 51 52 52 52 52 52 51 51 52 48 43 41 41 41 41 42 42 41 40 38
33 34 35 36 36 36 36 37 38 39 41 41 40 37 35 34 34 34 35 36 38 39 39 40 41 41 42 43 43 44 44 45 44 43 41 40 41 40 39 41 45 48 51 54 55 55 57 56 51 47 47 50 51 52 52 51 50 48 49 51 53 54 52 53 54 55 55 55 55 54 54 53 53 53 50 44 41 42 41 40 41 41 40 39 37
37 38 38 39 39 39 40 40 41 43 44 43 40 38 38 38 38 38 38 40 41 42 42 43 45 46 47 47 48 48 50 50 49 47 45 45 46 45 42 43 46 49 51 52 52 54 57 59 57 54 53 54 54 53 52 52 52 51 52 55 57 56 54 55 57 58 58 58 57 57 57 56 55 55 51 44 41 42 41 40 41 41 40 38 36
41 42 42 43 43 44 44 44 45 45 45 43 40 39 40 41 41 41 42 43 44 45 46 47 49 50 51 52 52 53 54 54 52 51 49 49 48 48 46 46 48 51 53 53 52 53 55 55 55 56 58 60 58 54 52 53 54 54 56 58 59 58 57 57 60 61 60 60 60 59 59 58 56 55 49 42 40 41 40 40 40 40 39 38 35
44 45 46 47 47 48 47 46 45 44 43 42 42 42 43 44 45 46 46 46 48 49 50 52 54 54 55 55 56 57 58 58 56 54 53 52 50 50 51 51 51 52 54 55 56 57 57 55 53 56 60 63 61 58 55 54 54 56 57 59 60 60 60 60 62 63 61 61 61 61 60 59 56 53 47 42 40 40 39 39 40 39 39 37 34
44 45 46 47 47 46 45 44 43 43 44 45 46 46 47 47 48 48 49 49 51 52 53 55 56 57 58 58 58 59 60 59 59 58 57 54 53 54 55 56 56 56 56 58 60 61 62 60 58 59 61 60 59 60 59 57 56 56 58 59 61 62 62 62 64 64 62 62 61 61 60 58 54 52 47 42 40 39 38 39 39 39 38 37 33
45 45 46 45 45 45 45 45 45 46 47 49 50 50 50 50 49 49 50 51 52 53 54 55 57 57 58 60 61 62 62 61 60 62 62 60 58 59 60 59 60 60 59 62 66 68 67 64 62 62 62 60 57 57 58 59 59 60 60 61 63 65 64 63 64 63 61 61 61 60 59 56 54 52 47 42 39 38 38 38 38 38 38 36 32
47 47 47 47 47 48 48 48 49 51 52 53 54 53 53 52 52 51 51 51 53 55 56 56 58 59 60 62 63 65 66 65 63 64 66 64 63 64 64 63 64 64 64 66 72 75 72 69 66 64 63 62 61 59 59 59 61 62 63 64 66 66 65 63 63 62 60 59 59 58 57 55 53 50 44 40 38 37 37 37 38 38 37 35 31
49 50 51 52 52 53 53 53 54 54 55 55 55 54 54 54 54 54 54 55 56 57 58 58 59 61 62 64 65 66 67 67 66 65 66 66 66 66 66 66 67 68 69 71 75 77 75 72 71 70 68 67 66 62 60 60 61 63 65 67 69 67 64 64 64 61 57 56 56 56 55 53 51 47 41 38 37 36 36 37 37 37 37 34 31
46 48 49 50 51 52 52 53 53 53 53 53 53 53 54 54 55 56 57 58 58 59 60 61 61 62 64 65 66 66 67 68 68 67 66 67 68 67 66 67 68 69 71 74 77 79 77 75 74 74 74 73 72 68 65 65 65 65 67 70 69 66 65 66 66 60 54 53 54 53 52 50 48 44 39 37 36 35 35 36 37 37 36 34 30
45 45 45 45 46 47 48 49 50 51 52 53 54 55 56 57 58 59 59 60 61 61 62 63 63 64 65 66 67 68 68 68 69 68 67 68 70 70 69 68 68 70 73 76 79 81 79 77 77 76 75 74 73 71 69 67 65 65 67 68 67 66 67 68 66 60 54 51 51 49 48 48 47 43 39 36 35 35 35 35 36 36 35 33 30
46 45 44 45 45 47 48 50 51 52 54 56 57 58 59 60 60 61 61 62 62 63 64 65 65 66 67 67 68 69 70 70 70 69 68 68 69 70 70 69 70 71 74 77 81 83 81 80 79 78 75 73 72 72 71 69 65 66 67 67 67 69 71 68 63 58 54 50 48 46 46 47 46 42 38 35 33 34 34 34 35 36 34 32 30
48 47 47 47 48 49 50 52 53 54 56 58 60 61 61 61 62 62 62 63 63 63 64 64 65 67 68 69 69 70 71 72 71 69 68 68 68 70 71 73 73 74 75 79 82 83 83 82 81 80 78 75 72 72 74 72 68 66 66 66 67 70 72 69 63 57 53 49 47 45 45 46 45 41 37 33 33 34 34 34 34 35 33 32 31
49 49 49 49 50 51 52 53 54 55 57 58 60 61 62 62 62 62 63 63 63 63 63 63 63 65 67 68 69 70 70 71 72 71 70 69 70 72 73 73 73 74 76 80 84 84 82 81 82 83 82 78 74 73 73 71 68 66 65 64 65 68 71 69 63 56 50 48 46 45 45 45 43 40 35 32 32 33 33 33 34 34 32 31 31
49 49 50 50 50 51 52 53 54 54 55 56 57 58 59 59 60 61 61 61 61 61 61 61 62 63 65 66 68 68 69 70 71 71 71 70 71 74 75 75 74 74 76 80 83 84 82 80 82 84 82 79 76 73 71 70 67 64 63 62 61 63 68 68 62 54 49 47 46 44 43 42 41 38 34 31 32 33 33 33 34 33 32 31 31
52 51 51 51 51 52 53 53 54 55 55 56 56 56 57 57 58 58 59 59 59 59 59 60 61 62 63 64 66 67 68 68 67 67 69 70 71 71 72 73 76 78 80 82 84 82 80 79 81 80 75 70 69 68 68 67 63 57 56 57 57 60 65 65 57 51 49 47 44 41 40 39 38 35 32 31 31 32 33 33 33 32 31 31 31
52 51 51 51 52 53 54 55 56 57 57 57 57 57 57 57 57 57 57 57 57 57 58 59 61 61 62 64 67 68 68 66 65 64 66 68 68 70 72 76 79 79 76 77 79 78 76 75 76 76 71 67 67 68 67 64 60 56 55 57 58 61 62 56 47 45 45 43 40 38 38 37 35 33 31 31 31 32 32 33 33 32 31 31 31
49 49 50 51 53 54 55 56 57 58 58 58 57 56 55 55 55 55 55 56 55 56 57 58 60 61 61 63 65 66 65 64 63 63 64 64 63 66 67 63 57 51 46 48 55 59 63 65 66 69 69 66 65 67 66 64 63 63 61 57 56 56 53 46 40 40 41 39 37 37 36 35 33 31 31 31 31 31 32 32 32 32 31 31 31
45 46 49 51 53 55 56 57 58 58 57 56 55 54 54 54 54 55 55 55 55 55 56 57 58 58 58 59 61 62 61 59 58 58 60 60 58 60 59 47 32 23 23 30 36 41 49 55 57 59 64 64 64 63 61 59 59 57 52 46 44 44 42 38 37 38 38 36 36 35 35 33 32 31 30 30 30 31 32 32 32 32 31 31 31
43 44 47 50 51 52 54 55 56 56 56 55 54 53 53 53 54 54 55 55 55 55 55 56 57 57 56 57 58 57 56 55 52 50 53 55 52 53 51 37 20 13 14 19 23 28 39 48 51 52 56 59 60 60 57 53 49 45 41 39 39 38 36 35 34 35 35 35 34 34 33 32 31 30 30 30 31 31 32 32 32 32 31 31 31
43 45 47 48 47 47 48 48 49 50 50 51 51 51 51 51 52 53 53 54 54 55 55 55 56 56 56 56 56 53 51 49 47 46 48 48 46 44 36 18 16 24 27 31 36 39 42 45 49 52 53 51 51 51 51 47 43 39 37 37 36 34 32 32 32 33 33 33 32 32 32 31 30 30 30 30 31 31 31 32 32 32 31 32 31
43 44 45 45 45 44 44 43 44 44 45 46 46 47 48 49 50 50 51 52 53 54 55 55 55 55 54 53 52 50 47 45 43 44 45 43 41 38 29 15 16 24 34 46 51 49 44 40 41 45 48 47 45 44 43 42 41 40 38 35 33 31 30 31 32 32 31 32 32 32 30 29 30 30 30 30 31 31 32 32 33 32 32 32 31
43 43 43 43 43 42 42 41 41 42 43 44 44 45 46 47 48 49 50 51 52 53 53 52 52 50 49 48 47 46 45 43 41 42 42 40 38 35 29 24 20 17 19 28 32 32 32 34 37 40 43 46 48 48 47 45 43 40 36 32 30 30 30 30 31 31 31 32 32 30 28 28 30 31 31 31 31 32 32 32 33 32 32 32 32
43 42 42 41 40 41 41 41 41 42 43 44 45 45 45 46 47 47 48 48 48 48 47 47 46 46 44 43 43 43 42 41 40 40 39 37 36 35 32 30 29 25 19 17 19 19 22 26 31 34 36 38 39 39 38 36 33 31 30 30 30 31 30 30 31 31 32 32 30 28 27 28 30 31 32 32 32 32 32 32 33 33 33 32 32
44 42 40 39 39 39 40 40 41 42 43 44 44 44 44 45 45 45 44 44 43 43 43 43 43 43 43 41 39 38 38 38 37 38 38 36 34 32 30 29 28 25 20 18 18 17 16 17 20 22 23 23 24 26 27 27 28 29 30 30 31 30 30 30 31 32 32 30 28 27 27 28 30 31 32 32 32 32 32 33 33 33 33 32 32
43 41 39 39 38 39 39 40 40 41 42 42 42 42 42 42 42 42 41 41 41 41 41 41 42 42 42 40 37 36 36 36 36 37 38 37 34 31 29 28 27 25 22 20 18 15 14 15 18 20 20 22 23 25 26 27 28 29 30 30 30 30 30 30 31 31 30 29 28 27 28 29 30 31 32 33 32 33 33 33 34 34 33 33 32
41 39 39 38 37 37 38 39 39 40 41 41 40 39 39 39 39 39 39 39 39 40 40 40 41 41 41 40 38 36 35 35 35 35 36 35 32 29 28 27 25 23 21 20 18 17 17 20 24 25 25 25 25 25 25 27 29 30 30 30 30 29 29 30 30 29 29 29 29 29 29 30 31 31 32 33 33 33 34 34 34 34 34 33 32
39 38 38 37 36 36 36 37 38 39 39 39 38 37 37 36 36 36 37 37 38 38 39 39 40 40 39 38 36 35 34 32 31 31 32 31 28 24 22 22 22 22 23 24 25 25 26 28 29 29 28 27 27 27 27 28 29 30 29 29 29 29 30 30 29 30 30 30 30 30 31 31 31 32 33 33 34 34 34 35 35 35 34 33 33
38 38 37 36 35 35 35 36 37 37 38 37 37 36 35 34 34 34 35 36 37 37 38 38 38 38 38 37 35 34 32 30 27 27 28 28 25 22 20 20 21 22 23 25 27 28 29 30 30 29 29 29 28 28 28 27 27 28 28 29 29 30 30 30 30 31 31 31 32 32 33 33 33 33 34 34 34 35 36 36 36 35 35 34 33
Wind_Direction
224 227 231 234 237 239 241 244 246 249 251 252 252 251 250 249 248 247 246 245 244 243 242 241 242 246 250 253 254 259 267 274 277 277 273 271 270 269 265 261 266 279 284 286 295 313 331 338 339 339 340 343 344 341 337 330 324 318 316 316 317 318 318 319 320 320 320 319 317 315 313 314 316 316 316 315 315 317 318 319 319 319 318 319 320
226 229 233 235 238 240 240 242 245 247 249 251 252 252 252 251 250 249 248 247 246 245 243 242 244 248 251 254 255 256 261 267 273 275 272 268 268 266 263 258 260 272 281 286 293 309 327 333 333 334 335 338 339 337 331 322 316 314 311 310 312 315 317 317 317 316 315 315 314 313 312 312 313 312 312 312 312 313 315 316 316 316 316 316 318
228 230 231 233 236 237 238 240 243 246 248 250 250 251 252 251 251 250 248 247 247 247 246 244 245 248 252 254 255 256 258 262 267 271 270 266 265 265 262 257 256 263 273 281 290 305 322 328 329 333 337 339 340 340 336 327 319 317 315 314 316 318 319 319 317 315 312 311 310 310 310 310 311 311 310 310 309 310 311 312 312 313 314 314 316
231 231 231 232 233 234 235 237 241 244 247 248 248 248 249 250 251 252 251 249 248 247 247 247 247 249 252 254 255 255 255 256 261 266 266 264 263 263 261 257 253 257 265 275 286 300 314 321 324 330 337 338 339 347 352 345 335 328 324 323 323 323 321 320 319 317 315 312 310 309 308 308 309 309 309 310 310 310 311 311 311 313 313 313 314
235 235 234 233 233 233 234 236 239 243 245 246 247 249 250 251 252 253 253 252 250 248 248 248 249 250 252 253 253 253 253 252 254 259 261 261 259 260 260 257 254 254 259 268 281 293 305 313 317 324 332 333 339 353 359 355 349 343 335 330 327 326 327 327 326 323 321 318 314 311 309 307 306 307 308 309 310 310 310 311 313 314 314 314 313
238 236 236 235 234 233 234 236 239 242 244 245 247 250 253 253 253 253 253 251 249 248 249 249 249 250 251 251 252 251 251 250 250 253 256 258 258 258 259 258 255 253 256 262 273 285 296 304 308 314 321 322 327 344 352 351 350 349 343 335 331 331 333 334 331 327 324 322 319 315 311 307 305 305 308 310 310 310 311 312 313 315 315 314 313
240 237 236 235 233 231 233 234 237 240 241 240 243 248 248 247 247 248 248 247 244 244 245 245 244 245 247 249 249 249 249 249 249 251 253 256 257 257 257 257 256 254 254 257 265 276 286 293 298 302 308 308 308 320 334 337 337 339 338 335 334 333 335 335 333 329 327 325 323 319 314 309 306 307 310 311 311 311 313 313 314 315 315 314 314
240 238 236 235 233 230 230 232 235 238 239 236 237 237 232 229 231 233 235 234 233 233 235 236 237 238 241 244 246 247 248 249 250 251 252 254 255 256 256 256 256 254 253 254 258 266 277 284 290 294 297 300 299 303 313 320 322 325 329 331 333 332 333 335 334 332 330 329 327 324 320 315 310 310 312 312 312 313 314 314 315 315 315 315 317
240 237 236 236 232 229 228 231 235 238 238 235 232 228 221 216 211 206 202 199 205 217 228 234 237 239 242 244 247 248 249 250 252 252 253 253 254 255 255 254 254 253 253 254 255 260 268 276 282 287 291 296 297 298 304 308 310 315 323 327 329 330 331 334 336 335 333 331 329 327 325 321 316 313 313 312 313 314 314 314 314 315 315 317 318
240 237 236 235 230 226 227 232 236 238 238 235 232 228 224 220 214 206 200 193 192 205 221 234 241 243 245 248 251 252 253 253 253 253 254 254 253 252 252 252 253 253 253 254 254 255 261 269 275 281 286 291 294 298 301 302 303 309 317 321 323 326 329 332 335 336 335 333 330 327 325 321 318 315 314 313 314 314 313 314 313 314 315 317 318
241 238 234 231 227 224 227 232 236 238 239 238 236 233 230 228 224 218 214 209 211 217 218 225 242 248 249 251 253 253 254 253 254 253 254 254 253 251 251 252 253 254 254 253 254 254 256 262 268 275 281 285 290 295 297 297 299 306 313 317 319 322 325 329 332 334 335 334 332 327 324 321 318 317 315 314 313 312 312 313 313 314 316 316 317
243 239 231 226 223 223 226 230 233 237 239 241 241 239 236 235 234 232 229 226 228 230 225 228 242 253 258 262 262 260 256 252 252 253 253 254 253 251 250 251 253 255 255 253 252 252 253 257 262 269 275 279 284 289 293 295 298 304 312 315 317 319 321 325 328 330 332 333 332 329 325 321 320 317 315 314 312 312 312 312 313 315 316 317 317
243 237 229 223 219 220 224 229 233 237 240 241 241 241 240 240 241 241 240 240 243 243 238 240 247 253 258 264 270 271 266 257 253 252 252 254 254 253 251 251 253 255 256 254 252 252 253 255 259 265 271 275 279 283 288 293 296 302 309 313 314 315 317 319 322 325 327 328 329 329 326 322 320 318 316 313 312 311 312 313 315 316 317 317 317
241 235 228 222 217 218 225 230 235 236 236 237 238 241 244 245 245 244 245 249 254 254 251 251 255 258 258 259 262 267 272 271 265 260 257 255 256 256 255 254 254 256 257 257 254 253 255 256 258 261 267 272 276 278 282 288 292 298 305 309 309 310 312 315 318 321 323 324 327 329 327 324 321 318 316 313 311 312 313 314 316 317 317 317 317
243 237 231 226 223 225 230 235 238 237 235 235 238 241 245 248 250 250 250 253 257 260 260 260 260 260 261 261 260 261 265 271 274 273 270 265 262 261 260 260 260 260 262 262 260 258 258 259 259 260 264 270 274 276 278 282 287 293 300 303 304 304 306 310 314 317 320 321 323 326 327 325 322 319 317 314 312 313 314 315 316 316 316 317 319
248 243 238 234 232 233 236 239 241 241 241 242 242 243 246 249 252 254 254 254 256 259 263 266 266 265 264 263 262 263 265 268 272 277 278 276 271 268 268 268 267 267 268 268 267 265 263 263 262 262 263 267 271 275 277 279 284 289 295 298 299 300 302 306 310 314 316 318 319 322 324 325 322 319 317 314 312 312 314 315 315 316 317 318 320
255 252 248 244 242 243 244 242 241 243 247 249 249 249 249 250 252 254 255 255 255 256 258 261 263 265 265 265 264 264 264 265 267 271 274 276 277 276 275 273 272 271 271 271 270 268 267 267 266 265 264 265 269 273 275 277 281 286 290 293 295 298 299 302 306 310 312 314 315 317 321 323 322 319 316 314 312 312 313 315 314 315 317 317 319
259 258 254 251 252 256 254 248 244 246 252 256 257 255 252 251 253 255 254 253 253 253 252 254 258 262 264 267 268 269 269 268 266 265 266 269 272 275 274 273 273 273 273 272 271 270 269 269 268 267 267 267 269 271 273 276 279 283 287 290 292 295 297 299 302 306 307 309 311 314 318 320 320 318 315 313 312 311 312 313 313 315 316 317 318
259 259 259 258 259 262 260 254 252 255 260 262 261 257 254 254 255 255 254 254 255 255 256 258 261 265 267 269 272 274 275 275 272 268 266 265 266 266 267 268 269 272 273 274 273 272 271 270 269 268 269 269 269 271 272 275 277 280 284 287 290 293 294 296 299 301 302 304 308 311 314 317 319 317 314 313 312 310 311 312 313 314 316 316 318
256 257 260 261 262 264 261 257 258 262 263 262 261 259 257 257 258 255 253 255 256 256 258 261 265 268 270 270 272 274 275 275 274 272 271 269 267 265 264 265 267 268 269 270 271 271 270 270 269 268 269 269 269 270 272 274 276 279 281 284 287 290 291 294 296 297 298 301 304 308 311 314 316 315 312 311 311 309 310 311 312 314 315 315 317
252 254 258 260 261 264 263 261 262 263 261 260 262 264 264 265 265 261 257 258 260 259 259 261 264 266 267 267 269 271 273 275 274 272 272 274 274 273 271 269 267 266 267 268 268 268 268 268 269 268 268 268 268 269 271 273 275 276 279 282 284 286 288 291 293 294 296 298 301 304 307 311 314 314 311 309 309 308 308 309 311 313 313 314 317
249 252 255 258 260 261 262 263 264 264 263 264 267 269 269 269 268 263 260 262 263 263 262 263 264 266 268 269 270 272 274 275 274 273 272 275 277 279 279 275 269 265 266 268 270 269 267 266 266 267 268 267 266 267 269 271 273 274 277 280 281 283 285 287 290 292 293 295 298 301 304 308 311 312 309 307 307 307 306 308 310 312 312 313 317
246 249 252 254 256 257 258 261 263 264 265 267 268 268 266 265 265 262 261 263 264 265 265 267 269 272 274 275 275 277 277 277 276 275 274 274 274 274 275 276 273 268 266 266 267 268 267 264 263 264 267 267 266 266 268 269 270 272 274 276 278 281 283 285 288 289 291 293 295 298 301 305 307 309 308 305 305 305 305 307 309 311 311 313 316
244 246 249 251 253 254 256 258 259 261 263 265 265 264 263 264 264 265 265 266 268 269 271 273 275 277 278 278 278 279 279 278 277 276 274 274 273 272 270 270 272 273 271 269 267 266 266 265 262 261 263 264 264 265 266 267 268 269 272 274 276 278 280 283 285 287 289 291 293 296 299 302 304 307 306 303 302 303 304 306 308 310 311 312 314
244 246 248 250 252 253 255 256 258 259 261 262 262 263 266 267 268 269 270 271 272 274 275 276 278 279 279 279 279 278 277 277 276 275 273 272 271 272 271 269 269 270 271 273 273 271 269 267 263 261 260 260 260 260 262 265 267 268 269 270 272 275 278 280 282 284 286 289 291 294 297 299 302 305 304 299 299 301 303 305 307 308 309 310 313
242 245 247 249 251 253 255 257 258 258 259 260 262 266 269 270 271 272 272 272 273 274 273 273 275 276 276 277 277 277 276 276 275 275 273 271 270 271 271 271 269 268 270 273 274 274 272 269 268 266 263 260 259 258 258 261 264 265 266 268 271 274 277 278 280 282 284 287 289 292 295 296 300 304 302 296 296 300 302 304 306 307 308 309 312
242 244 247 249 252 254 256 257 258 259 261 263 266 269 270 272 273 273 273 272 272 271 270 270 271 273 274 275 275 275 275 275 276 275 274 273 274 274 273 272 271 270 270 270 271 270 270 269 269 268 266 263 262 261 258 258 260 262 265 268 271 273 275 276 278 280 282 285 287 290 293 295 298 301 300 294 294 298 300 302 304 306 306 307 310
246 247 249 251 253 255 257 257 259 261 263 265 268 270 271 272 273 272 271 270 269 269 269 269 270 271 272 273 273 273 274 275 276 277 277 276 275 274 273 272 271 270 269 269 268 267 266 266 265 265 265 265 265 263 261 260 260 261 263 266 268 270 272 273 275 277 280 283 285 289 291 292 295 299 297 292 292 296 299 301 303 304 304 305 309
252 253 254 254 255 256 257 257 259 261 263 264 267 269 270 271 270 268 266 266 266 266 267 268 269 271 272 273 274 275 275 276 276 276 277 278 277 274 272 271 270 269 269 269 267 265 264 263 263 264 265 266 265 263 262 261 261 260 261 262 264 266 267 270 272 274 277 280 283 287 289 290 294 296 294 289 290 295 297 299 302 303 302 304 308
253 255 256 256 256 256 257 258 259 261 262 264 266 268 269 268 267 266 265 265 265 267 268 270 272 273 274 275 276 276 276 277 275 274 274 276 276 275 273 271 269 268 268 267 267 266 263 262 262 263 265 266 266 265 263 261 260 259 259 260 260 261 264 268 270 272 275 278 282 285 286 289 293 294 289 286 290 294 296 298 300 301 301 302 307
253 254 255 256 257 258 259 260 261 262 264 265 267 268 268 267 266 266 266 266 267 269 271 272 274 275 275 275 275 275 276 276 274 272 272 273 273 272 271 270 268 267 267 267 267 268 266 264 262 262 264 266 267 267 264 260 258 257 258 258 258 259 262 265 268 270 273 277 281 283 285 288 292 291 286 285 289 292 294 297 299 299 299 301 305
252 253 254 256 257 258 259 260 261 263 264 265 266 266 266 266 266 266 266 267 268 269 271 272 273 274 274 275 275 275 275 275 275 273 272 272 272 271 269 269 268 268 267 266 266 267 267 265 263 262 263 263 263 264 263 260 258 257 256 256 257 259 261 262 264 267 270 275 280 282 284 288 290 288 284 284 288 291 293 296 297 297 298 300 303
254 254 255 256 257 258 259 260 261 263 264 264 265 265 265 265 266 266 267 268 268 269 270 271 272 274 275 275 275 276 276 276 275 275 274 273 273 272 270 269 268 268 267 267 266 267 266 265 264 263 263 262 262 263 263 262 258 256 257 257 257 256 256 258 261 264 266 272 278 280 282 287 289 286 282 283 286 290 292 294 295 295 296 298 301
256 257 257 258 258 259 260 261 262 263 264 264 265 265 266 266 267 268 269 269 270 271 272 273 275 276 276 276 277 277 278 278 277 276 276 276 275 275 274 272 271 269 267 267 267 267 266 263 262 261 261 261 263 265 267 265 260 256 256 259 259 257 256 257 260 261 262 267 275 279 281 286 288 284 281 282 285 288 291 292 293 293 294 296 300
255 257 258 259 259 260 262 263 264 264 265 265 266 266 267 268 269 269 271 272 274 275 276 277 278 278 278 279 279 279 280 280 280 280 279 278 278 277 276 275 274 273 271 268 267 266 265 263 261 260 260 260 261 262 264 264 261 256 255 258 260 261 262 260 257 256 258 264 272 278 281 285 286 282 279 280 283 286 289 290 290 291 293 294 298
255 257 259 261 262 264 265 266 266 266 267 268 268 268 269 269 270 271 273 274 275 276 277 278 278 278 279 280 280 280 281 282 282 283 283 283 282 281 279 279 278 276 272 269 265 264 263 262 259 258 258 258 259 259 260 261 260 256 255 259 261 264 266 262 255 252 256 263 271 278 281 282 283 281 278 278 281 285 287 288 288 290 291 293 295
259 262 264 266 267 268 268 269 269 269 271 272 272 271 271 271 272 273 274 274 275 275 276 276 276 277 278 279 280 281 282 283 285 287 288 288 288 288 287 286 282 277 270 265 262 260 258 257 255 254 254 254 256 256 256 257 257 256 256 259 262 265 268 265 259 256 259 266 273 279 280 279 280 279 276 276 280 283 284 285 286 288 290 291 293
263 265 267 268 270 270 270 270 270 271 272 273 273 272 273 274 274 275 275 275 275 276 276 276 276 277 278 278 279 280 281 283 287 291 293 294 294 293 291 287 282 277 270 263 258 255 252 250 249 249 250 250 250 252 254 254 254 255 256 259 263 267 268 266 262 260 262 269 275 277 277 277 278 275 273 275 279 281 282 283 285 286 289 290 291
264 267 268 270 271 271 271 271 271 272 274 274 274 274 274 275 276 276 276 276 276 276 276 276 277 278 279 279 280 281 282 285 288 291 295 297 296 294 291 286 281 278 270 259 252 248 245 243 242 243 245 246 246 249 253 253 252 254 258 261 267 269 265 262 262 263 265 270 273 273 274 276 275 271 271 275 278 279 280 281 283 285 287 288 288
267 269 270 271 272 271 271 271 272 273 274 274 275 275 276 276 276 276 276 276 276 276 276 277 278 279 280 282 283 285 287 291 293 295 299 300 299 299 297 288 279 278 272 257 247 242 238 237 238 238 239 242 245 248 251 252 252 255 259 263 269 269 263 259 263 264 264 267 270 271 274 274 270 268 270 274 276 277 278 279 281 284 286 286 286
269 271 272 271 271 270 269 270 271 272 272 272 273 274 275 275 275 275 274 274 275 275 276 277 278 281 283 286 288 291 295 299 302 303 305 305 303 306 308 299 285 283 278 259 247 237 228 229 233 236 237 239 242 247 252 253 253 254 257 260 265 265 260 258 262 262 261 265 269 271 272 270 266 267 271 273 275 276 277 278 281 283 285 285 284
270 272 273 272 271 270 269 270 270 271 271 270 271 273 274 274 274 273 272 272 273 273 275 277 280 283 286 289 292 296 299 303 305 306 306 305 304 307 310 303 278 257 258 250 241 233 226 226 230 233 235 239 243 248 252 252 249 249 252 258 262 260 257 258 260 260 261 265 268 269 269 266 265 267 271 272 274 275 276 278 281 282 283 283 283
273 274 274 275 274 272 271 271 272 272 271 270 271 273 273 273 273 273 272 272 272 273 276 279 282 286 288 290 294 296 297 300 303 303 303 304 304 303 303 287 209 196 197 196 200 212 222 227 230 232 236 242 246 247 244 242 242 246 255 260 259 256 255 257 259 259 262 265 267 267 266 264 264 268 270 272 274 275 275 277 280 281 281 281 281
278 277 276 275 274 273 272 272 272 272 272 271 272 272 272 273 274 275 274 274 274 275 278 281 284 286 288 290 292 294 294 296 299 299 300 304 304 298 289 259 202 189 183 181 189 203 216 226 232 234 236 240 242 242 241 243 249 256 260 258 253 252 254 256 257 259 262 265 265 264 263 262 265 268 270 271 274 275 275 277 279 279 280 280 279
279 277 276 275 274 273 272 272 272 272 271 271 272 272 272 273 275 275 276 277 277 278 280 282 283 285 286 288 290 291 292 293 294 295 297 302 305 299 284 264 252 239 205 190 197 212 222 229 235 238 239 240 243 246 250 253 255 256 255 252 252 255 257 256 257 260 262 263 262 260 260 262 265 268 269 271 273 274 275 277 278 278 278 278 278
274 273 273 273 272 272 272 271 271 272 272 272 272 272 273 274 275 276 277 278 279 280 280 281 282 282 283 285 287 289 291 291 291 292 294 297 299 300 294 285 281 281 270 247 240 240 237 237 240 241 242 244 246 248 250 249 247 247 250 253 256 258 256 255 257 260 260 260 259 258 260 263 265 267 270 272 273 274 275 276 277 277 277 277 277
269 268 269 269 269 270 271 271 272 272 271 272 272 272 273 274 275 276 276 277 278 278 279 280 281 281 281 283 285 286 288 290 291 292 294 294 291 291 291 288 285 284 282 274 267 261 254 248 243 239 239 243 246 247 248 249 250 252 255 256 256 255 254 255 257 257 257 257 257 258 260 263 265 267 270 272 274 275 276 276 276 276 276 276 276
265 266 266 266 267 268 269 269 270 271 271 271 271 271 272 273 273 274 275 275 276 277 277 278 279 280 280 281 283 284 286 288 289 290 291 290 285 280 277 275 273 273 274 273 269 262 254 251 251 253 255 256 256 256 257 258 258 257 255 254 253 253 255 257 257 256 256 257 257 259 261 263 265 266 269 272 273 274 275 275 275 275 275 275 275
264 264 264 264 265 266 267 268 269 269 269 270 270 270 271 272 272 273 274 274 274 275 276 276 277 278 279 280 283 284 284 284 285 286 284 281 277 272 266 262 261 262 262 259 252 243 239 245 254 261 264 264 263 262 261 261 259 256 253 253 254 256 258 258 257 256 256 257 258 260 262 262 264 266 269 270 272 273 273 274 274 274 274 274 273
262 263 263 263 263 265 266 266 267 268 268 269 270 270 271 271 271 271 272 273 273 273 274 274 274 275 276 278 281 282 282 281 280 277 274 270 267 260 250 245 246 247 247 246 243 241 242 248 256 261 264 263 262 261 260 260 257 253 252 254 257 259 259 258 256 255 256 258 260 262 263 264 265 267 268 269 270 271 272 272 272 272 272 272 272
260 261 262 262 262 263 264 265 266 267 267 268 269 270 271 272 272 272 272 272 272 271 271 271 271 272 274 276 277 277 277 277 275 269 261 256 253 248 242 241 243 243 242 242 242 242 243 246 251 254 255 256 258 261 264 265 263 261 260 260 259 259 258 256 255 256 258 260 261 263 264 265 266 266 266 267 268 269 270 271 271 271 271 271 271
Height
5905 5906 5907 5908 5909 5910 5911 5911 5912 5912 5913 5914 5915 5916 5916 5917 5918 5919 5920 5922 5923 5924 5925 5926 5926 5927 5927 5928 5928 5928 5928 5928 5928 5928 5929 5929 5929 5929 5929 5930 5929 5929 5929 5929 5928 5928 5927 5927 5926 5925 5924 5923 5922 5922 5921 5920 5920 5919 5918 5917 5916 5915 5914 5914 5913 5912 5911 5909 5908 5907 5905 5903 5901 5899 5897 5895 5893 5891 5890 5888 5886 5884 5882 5880 5878
5903 5904 5905 5906 5907 5908 5908 5909 5910 5910 5911 5912 5912 5913 5914 5915 5915 5917 5918 5919 5920 5922 5923 5923 5924 5925 5925 5926 5926 5926 5926 5926 5926 5927 5927 5927 5927 5927 5928 5928 5927 5927 5927 5927 5927 5927 5926 5926 5924 5923 5923 5922 5921 5919 5919 5918 5918 5917 5916 5916 5915 5914 5913 5912 5911 5910 5909 5907 5906 5905 5903 5902 5900 5898 5896 5894 5891 5889 5888 5886 5884 5882 5880 5878 5876
5901 5902 5903 5904 5905 5905 5906 5908 5908 5909 5909 5910 5910 5911 5911 5912 5913 5914 5915 5916 5918 5919 5920 5921 5922 5922 5923 5923 5924 5924 5924 5924 5924 5924 5925 5925 5925 5925 5925 5925 5925 5925 5925 5925 5925 5925 5925 5924 5923 5922 5921 5920 5919 5917 5916 5916 5916 5915 5915 5915 5914 5913 5912 5911 5909 5908 5906 5905 5904 5903 5901 5899 5898 5896 5894 5892 5890 5888 5886 5884 5882 5880 5878 5875 5873
5899 5900 5901 5902 5902 5903 5905 5906 5906 5907 5908 5908 5908 5908 5909 5909 5910 5911 5912 5913 5915 5916 5917 5918 5919 5920 5920 5921 5921 5921 5921 5922 5922 5922 5922 5922 5923 5923 5923 5923 5923 5923 5923 5924 5924 5924 5924 5923 5922 5921 5920 5919 5918 5916 5915 5915 5914 5914 5913 5913 5912 5911 5910 5908 5907 5906 5904 5902 5901 5900 5898 5897 5895 5893 5891 5889 5888 5886 5884 5882 5880 5878 5875 5873 5871
5897 5898 5899 5899 5900 5901 5902 5903 5904 5905 5905 5906 5906 5906 5907 5907 5908 5909 5910 5911 5912 5913 5914 5915 5916 5917 5917 5917 5918 5918 5918 5919 5919 5920 5920 5920 5920 5921 5921 5921 5921 5921 5921 5921 5922 5922 5922 5921 5920 5919 5919 5918 5917 5915 5914 5914 5913 5912 5912 5911 5910 5909 5907 5906 5904 5903 5901 5899 5897 5896 5894 5893 5892 5889 5888 5886 5885 5883 5881 5879 5877 5875 5872 5870 5868
5895 5896 5896 5897 5898 5899 5900 5901 5902 5902 5903 5903 5904 5904 5905 5905 5906 5906 5907 5908 5909 5910 5911 5912 5913 5914 5914 5914 5914 5915 5915 5915 5916 5917 5917 5917 5918 5918 5919 5919 5919 5919 5919 5919 5920 5920 5920 5919 5918 5918 5918 5917 5916 5915 5913 5912 5911 5911 5910 5909 5908 5906 5905 5903 5901 5900 5898 5896 5893 5891 5889 5888 5887 5885 5884 5883 5882 5880 5878 5876 5874 5872 5869 5867 5864
5893 5894 5894 5895 5896 5898 5899 5900 5900 5900 5901 5901 5902 5903 5903 5903 5904 5904 5904 5905 5906 5907 5908 5909 5909 5910 5910 5910 5911 5911 5911 5912 5913 5913 5914 5914 5915 5915 5916 5916 5916 5916 5916 5917 5917 5918 5918 5917 5916 5916 5916 5915 5914 5913 5912 5911 5910 5909 5908 5907 5906 5904 5902 5901 5899 5897 5895 5893 5890 5888 5885 5884 5883 5881 5880 5879 5878 5876 5875 5873 5870 5869 5866 5864 5861
5890 5892 5892 5893 5895 5896 5897 5897 5897 5898 5899 5900 5901 5901 5902 5902 5902 5902 5903 5903 5904 5904 5905 5906 5906 5906 5907 5907 5907 5908 5908 5909 5909 5910 5911 5912 5912 5913 5913 5914 5914 5914 5914 5914 5915 5915 5915 5915 5914 5914 5914 5913 5912 5911 5910 5909 5908 5907 5906 5905 5904 5902 5900 5899 5897 5895 5893 5891 5888 5886 5883 5881 5880 5879 5877 5876 5874 5872 5871 5869 5867 5865 5863 5860 5857
5887 5889 5890 5891 5893 5894 5894 5894 5895 5896 5897 5898 5899 5900 5900 5901 5901 5901 5901 5902 5902 5903 5903 5904 5904 5904 5905 5905 5905 5905 5906 5906 5907 5907 5908 5909 5910 5910 5910 5911 5911 5911 5911 5911 5912 5912 5913 5912 5912 5911 5911 5911 5910 5909 5908 5907 5906 5905 5904 5902 5901 5900 5898 5897 5895 5893 5891 5889 5887 5884 5882 5880 5878 5877 5875 5873 5871 5869 5867 5865 5863 5861 5858 5856 5853
5884 5886 5887 5889 5890 5891 5891 5892 5893 5894 5895 5896 5897 5898 5898 5899 5899 5900 5900 5901 5901 5901 5902 5902 5902 5903 5903 5903 5903 5903 5903 5904 5904 5905 5905 5906 5906 5907 5907 5907 5908 5908 5908 5908 5909 5909 5910 5909 5909 5908 5908 5908 5907 5906 5905 5905 5904 5902 5901 5900 5899 5898 5896 5895 5893 5891 5889 5887 5885 5883 5881 5879 5877 5875 5872 5870 5868 5866 5864 5862 5859 5857 5855 5852 5849
5881 5883 5885 5886 5887 5887 5888 5889 5891 5892 5893 5894 5895 5896 5896 5897 5898 5898 5899 5899 5900 5900 5900 5901 5901 5901 5901 5901 5901 5901 5902 5902 5902 5902 5902 5902 5903 5903 5903 5904 5904 5904 5904 5905 5905 5906 5906 5906 5905 5905 5905 5905 5904 5903 5902 5902 5901 5900 5899 5897 5896 5895 5893 5892 5890 5889 5887 5885 5882 5880 5879 5877 5875 5872 5870 5867 5865 5863 5861 5859 5856 5854 5851 5848 5844
5878 5880 5881 5882 5883 5885 5886 5887 5888 5889 5890 5891 5892 5893 5894 5895 5896 5896 5897 5897 5898 5898 5899 5899 5899 5899 5900 5900 5900 5900 5900 5900 5900 5899 5899 5899 5899 5899 5900 5900 5900 5900 5900 5901 5902 5902 5902 5902 5902 5902 5902 5901 5900 5899 5899 5898 5898 5897 5895 5894 5893 5891 5890 5889 5887 5886 5884 5882 5880 5878 5876 5874 5872 5870 5867 5864 5862 5860 5857 5855 5853 5850 5847 5844 5839
5875 5876 5878 5879 5880 5882 5883 5884 5886 5887 5888 5889 5889 5890 5891 5892 5893 5894 5894 5895 5895 5896 5896 5897 5897 5897 5898 5898 5898 5898 5898 5898 5898 5897 5897 5896 5896 5896 5895 5896 5896 5896 5896 5897 5898 5898 5898 5898 5898 5898 5898 5897 5897 5896 5896 5895 5894 5893 5892 5891 5890 5888 5887 5885 5884 5883 5881 5879 5877 5874 5872 5871 5869 5866 5864 5861 5859 5856 5854 5851 5849 5846 5843 5839 5836
5872 5874 5875 5876 5878 5879 5880 5881 5883 5884 5885 5885 5886 5886 5887 5889 5890 5891 5891 5891 5892 5893 5894 5894 5895 5895 5895 5896 5896 5896 5896 5896 5895 5895 5894 5894 5893 5892 5892 5892 5892 5892 5892 5893 5894 5894 5894 5894 5894 5894 5894 5893 5893 5893 5892 5891 5890 5890 5889 5887 5886 5885 5884 5882 5881 5879 5878 5876 5874 5871 5869 5867 5865 5863 5861 5858 5855 5853 5850 5847 5845 5842 5838 5835 5832
5870 5872 5873 5874 5875 5876 5877 5879 5880 5880 5881 5882 5883 5884 5885 5885 5886 5887 5888 5888 5889 5889 5890 5890 5891 5892 5892 5892 5893 5893 5893 5893 5893 5893 5892 5891 5890 5889 5888 5888 5889 5889 5889 5890 5891 5891 5891 5891 5890 5890 5890 5890 5889 5889 5888 5888 5887 5886 5885 5884 5882 5881 5880 5879 5877 5876 5874 5873 5870 5868 5866 5864 5862 5859 5857 5854 5852 5849 5846 5843 5841 5838 5834 5831 5828
5868 5870 5871 5872 5873 5874 5875 5876 5876 5877 5878 5879 5880 5881 5882 5883 5883 5884 5884 5885 5886 5886 5886 5887 5888 5888 5888 5889 5889 5890 5890 5890 5891 5890 5890 5889 5888 5886 5886 5885 5886 5887 5887 5887 5888 5888 5887 5887 5887 5887 5887 5886 5886 5885 5884 5884 5883 5882 5882 5880 5879 5878 5877 5875 5874 5872 5871 5869 5867 5865 5863 5860 5858 5856 5853 5851 5848 5846 5843 5840 5836 5833 5830 5827 5823
5866 5867 5869 5870 5871 5872 5872 5873 5873 5874 5875 5876 5877 5878 5879 5880 5880 5880 5881 5881 5882 5883 5883 5883 5884 5884 5884 5884 5885 5886 5887 5887 5887 5887 5886 5885 5884 5883 5882 5882 5882 5882 5883 5884 5884 5884 5883 5884 5884 5884 5883 5883 5883 5881 5880 5880 5879 5879 5878 5876 5875 5873 5872 5872 5871 5869 5867 5865 5863 5861 5859 5856 5854 5852 5849 5847 5844 5842 5839 5836 5833 5829 5826 5823 5819
5863 5865 5866 5867 5868 5869 5869 5870 5870 5871 5872 5873 5874 5875 5876 5876 5877 5877 5877 5877 5878 5878 5879 5879 5879 5879 5880 5880 5881 5882 5882 5882 5882 5882 5882 5881 5880 5879 5878 5877 5877 5878 5879 5879 5880 5879 5879 5879 5880 5880 5879 5879 5879 5877 5876 5875 5875 5875 5874 5872 5870 5869 5867 5867 5867 5865 5863 5861 5859 5856 5855 5852 5850 5848 5845 5843 5840 5838 5835 5832 5829 5826 5823 5819 5816
5860 5861 5862 5864 5865 5865 5866 5867 5868 5869 5870 5870 5871 5871 5872 5873 5873 5872 5873 5873 5874 5874 5875 5875 5876 5876 5876 5876 5876 5877 5877 5877 5877 5878 5877 5876 5875 5874 5872 5871 5872 5873 5874 5874 5875 5874 5874 5874 5874 5875 5875 5875 5875 5873 5871 5871 5872 5871 5869 5868 5866 5864 5863 5863 5863 5860 5858 5857 5855 5852 5851 5848 5846 5844 5841 5839 5836 5834 5831 5828 5825 5822 5819 5815 5812
5856 5858 5859 5860 5861 5862 5863 5864 5865 5866 5867 5867 5867 5867 5868 5869 5868 5868 5869 5869 5870 5870 5871 5872 5872 5873 5872 5872 5871 5871 5872 5872 5872 5873 5873 5871 5870 5868 5867 5866 5867 5868 5868 5868 5869 5869 5868 5868 5869 5870 5870 5870 5870 5868 5866 5867 5867 5866 5865 5864 5862 5860 5858 5858 5858 5856 5853 5852 5851 5849 5847 5844 5842 5839 5837 5835 5833 5830 5827 5824 5821 5818 5815 5812 5808
5853 5854 5856 5857 5858 5859 5860 5861 5862 5862 5862 5863 5863 5863 5864 5864 5864 5864 5864 5865 5865 5866 5866 5867 5867 5868 5867 5867 5866 5866 5867 5866 5866 5867 5868 5867 5865 5864 5862 5863 5863 5863 5862 5862 5862 5862 5862 5862 5863 5865 5864 5864 5864 5862 5861 5862 5863 5862 5861 5859 5857 5855 5854 5853 5853 5851 5849 5847 5846 5844 5843 5840 5838 5835 5833 5831 5829 5826 5823 5820 5817 5814 5811 5808 5804
5849 5851 5852 5854 5855 5855 5856 5857 5858 5858 5858 5859 5859 5859 5859 5859 5859 5859 5860 5860 5860 5861 5861 5861 5862 5862 5862 5862 5861 5862 5862 5861 5861 5861 5863 5863 5861 5859 5858 5858 5858 5857 5856 5856 5857 5856 5855 5856 5858 5859 5858 5857 5857 5856 5856 5856 5857 5857 5856 5854 5852 5850 5849 5848 5847 5846 5844 5842 5841 5840 5838 5836 5834 5831 5829 5827 5825 5822 5819 5816 5813 5810 5808 5804 5801
5846 5847 5849 5850 5851 5852 5852 5853 5853 5854 5854 5855 5854 5855 5855 5855 5854 5855 5855 5855 5855 5856 5856 5856 5856 5856 5856 5856 5856 5856 5856 5856 5855 5856 5857 5857 5856 5855 5853 5852 5851 5849 5849 5850 5851 5850 5849 5849 5851 5852 5852 5851 5850 5850 5850 5851 5851 5851 5851 5849 5846 5845 5844 5843 5843 5841 5838 5837 5836 5835 5833 5832 5829 5827 5825 5823 5820 5817 5814 5812 5809 5806 5803 5800 5797
5842 5843 5845 5845 5846 5847 5848 5848 5849 5849 5850 5850 5850 5850 5850 5850 5850 5850 5850 5850 5850 5849 5850 5850 5849 5849 5850 5849 5849 5850 5849 5848 5848 5850 5851 5851 5850 5850 5848 5846 5844 5843 5841 5842 5843 5843 5842 5842 5844 5845 5845 5843 5843 5843 5843 5844 5845 5845 5845 5843 5840 5839 5839 5838 5837 5836 5834 5832 5831 5830 5829 5827 5824 5822 5821 5818 5816 5813 5810 5808 5805 5802 5799 5797 5793
5838 5839 5840 5841 5842 5842 5843 5844 5844 5845 5845 5845 5846 5846 5846 5845 5845 5845 5845 5844 5844 5843 5844 5843 5842 5842 5843 5843 5843 5843 5842 5841 5842 5843 5845 5844 5843 5843 5842 5841 5838 5836 5834 5834 5834 5834 5834 5834 5836 5837 5837 5835 5834 5835 5836 5838 5840 5839 5838 5836 5834 5833 5834 5833 5831 5830 5829 5827 5826 5824 5823 5822 5820 5817 5816 5814 5811 5808 5806 5803 5801 5798 5796 5793 5790
5833 5834 5835 5836 5837 5837 5838 5839 5839 5840 5840 5840 5841 5841 5840 5840 5840 5839 5839 5838 5838 5838 5838 5837 5836 5836 5835 5836 5836 5835 5834 5833 5835 5836 5836 5836 5836 5836 5837 5835 5832 5830 5828 5827 5826 5824 5825 5826 5828 5829 5828 5826 5827 5829 5830 5831 5832 5831 5830 5829 5828 5828 5828 5827 5825 5824 5823 5822 5820 5819 5818 5816 5815 5813 5811 5809 5806 5804 5801 5799 5796 5794 5792 5789 5786
5828 5829 5830 5831 5832 5832 5833 5834 5834 5835 5835 5835 5835 5835 5835 5834 5834 5834 5833 5833 5832 5832 5831 5831 5830 5829 5829 5828 5828 5827 5825 5825 5826 5827 5827 5828 5829 5829 5828 5827 5825 5823 5821 5820 5818 5816 5815 5817 5819 5820 5818 5817 5820 5823 5824 5823 5823 5824 5824 5823 5822 5822 5822 5821 5819 5818 5818 5816 5815 5814 5812 5811 5810 5808 5806 5804 5801 5799 5797 5795 5792 5790 5788 5785 5782
5822 5823 5824 5825 5826 5827 5828 5828 5829 5829 5829 5829 5829 5829 5829 5829 5829 5828 5828 5827 5826 5825 5825 5824 5823 5823 5822 5821 5820 5818 5817 5817 5819 5818 5818 5820 5821 5820 5818 5818 5817 5815 5814 5813 5809 5806 5805 5807 5809 5809 5807 5809 5812 5815 5816 5817 5817 5817 5817 5816 5815 5814 5814 5814 5813 5812 5811 5811 5809 5808 5807 5805 5804 5802 5801 5799 5797 5795 5793 5790 5788 5786 5784 5781 5778
5817 5818 5819 5820 5820 5821 5822 5822 5823 5823 5823 5822 5822 5822 5823 5822 5822 5822 5821 5820 5819 5819 5818 5817 5816 5816 5815 5813 5811 5810 5809 5811 5813 5811 5808 5810 5811 5809 5808 5809 5807 5806 5807 5804 5797 5793 5794 5796 5798 5799 5799 5801 5804 5807 5808 5810 5810 5809 5809 5809 5807 5806 5807 5807 5806 5806 5805 5805 5803 5802 5801 5799 5798 5797 5795 5793 5792 5790 5788 5786 5784 5782 5780 5777 5774
5811 5812 5813 5814 5814 5815 5815 5816 5816 5816 5816 5816 5816 5816 5816 5815 5815 5815 5814 5814 5812 5811 5811 5810 5809 5808 5806 5805 5804 5802 5800 5803 5806 5803 5799 5801 5801 5800 5799 5800 5798 5797 5798 5793 5784 5781 5784 5787 5789 5791 5792 5792 5795 5799 5801 5801 5801 5800 5801 5801 5800 5799 5799 5799 5799 5799 5799 5798 5797 5796 5795 5793 5792 5790 5789 5787 5786 5785 5783 5781 5779 5777 5776 5773 5770
5805 5806 5807 5807 5808 5808 5809 5809 5809 5809 5809 5809 5809 5809 5808 5807 5807 5807 5807 5806 5805 5804 5803 5802 5801 5800 5798 5796 5796 5794 5793 5794 5795 5794 5792 5791 5791 5791 5790 5790 5789 5787 5786 5781 5773 5771 5776 5780 5781 5783 5784 5784 5786 5790 5792 5792 5792 5791 5791 5791 5791 5791 5792 5792 5792 5793 5793 5792 5791 5789 5788 5787 5786 5784 5783 5782 5781 5779 5778 5776 5775 5773 5771 5769 5767
5799 5799 5800 5801 5801 5802 5802 5802 5802 5802 5802 5802 5801 5801 5801 5800 5800 5799 5799 5798 5797 5796 5795 5794 5793 5791 5789 5787 5786 5786 5785 5785 5784 5784 5784 5782 5781 5781 5782 5782 5780 5777 5775 5771 5764 5760 5764 5770 5772 5774 5774 5774 5776 5780 5781 5781 5781 5781 5780 5780 5782 5784 5785 5784 5784 5786 5786 5785 5784 5783 5782 5781 5779 5778 5777 5777 5776 5774 5773 5772 5770 5769 5767 5765 5763
5792 5792 5793 5794 5794 5795 5795 5795 5795 5795 5794 5794 5793 5793 5793 5792 5792 5791 5791 5790 5789 5788 5787 5786 5785 5783 5781 5779 5777 5776 5776 5776 5774 5774 5774 5773 5770 5770 5771 5772 5771 5768 5764 5760 5754 5751 5754 5759 5761 5762 5764 5764 5766 5769 5771 5772 5774 5773 5771 5771 5774 5775 5775 5775 5777 5779 5779 5779 5778 5777 5776 5774 5773 5772 5772 5772 5771 5769 5768 5767 5766 5765 5763 5761 5759
5785 5785 5786 5786 5787 5787 5787 5787 5787 5786 5786 5785 5785 5785 5784 5784 5783 5783 5782 5781 5781 5780 5779 5777 5775 5773 5771 5770 5768 5766 5765 5765 5764 5765 5765 5763 5761 5759 5758 5758 5758 5757 5754 5749 5743 5741 5743 5746 5748 5750 5753 5755 5759 5761 5762 5764 5766 5766 5765 5766 5766 5765 5764 5766 5769 5771 5771 5771 5771 5770 5770 5768 5767 5767 5767 5767 5766 5765 5764 5763 5762 5760 5759 5757 5755
5778 5778 5779 5779 5779 5779 5779 5779 5779 5778 5777 5777 5776 5776 5776 5776 5775 5774 5773 5773 5772 5772 5771 5768 5765 5763 5761 5760 5759 5757 5755 5753 5753 5754 5754 5752 5751 5748 5745 5742 5742 5742 5740 5737 5732 5730 5732 5735 5738 5741 5743 5746 5751 5753 5753 5754 5757 5757 5758 5759 5759 5757 5756 5758 5760 5762 5763 5764 5764 5764 5763 5763 5762 5761 5761 5761 5761 5760 5759 5758 5757 5756 5754 5753 5751
5771 5771 5772 5772 5772 5772 5772 5772 5771 5770 5770 5769 5768 5768 5768 5767 5766 5766 5765 5764 5764 5764 5763 5760 5756 5754 5753 5751 5748 5746 5745 5744 5742 5742 5741 5739 5737 5734 5730 5729 5729 5728 5725 5722 5718 5718 5722 5725 5727 5729 5732 5736 5740 5741 5742 5744 5747 5749 5750 5751 5751 5751 5750 5750 5752 5754 5756 5757 5758 5758 5757 5756 5756 5756 5756 5756 5756 5755 5754 5754 5753 5751 5750 5748 5747
5764 5764 5765 5765 5765 5764 5764 5764 5763 5763 5762 5761 5760 5760 5760 5759 5758 5757 5757 5756 5756 5755 5754 5752 5749 5747 5745 5743 5739 5738 5737 5736 5733 5730 5728 5726 5724 5718 5713 5712 5711 5709 5707 5703 5699 5701 5708 5713 5713 5715 5721 5727 5729 5731 5733 5735 5738 5741 5742 5744 5745 5745 5744 5745 5747 5749 5750 5751 5752 5751 5750 5750 5750 5751 5751 5751 5750 5750 5749 5749 5748 5747 5746 5744 5743
5756 5757 5757 5757 5757 5757 5756 5756 5755 5755 5754 5754 5753 5753 5752 5751 5750 5749 5748 5748 5748 5747 5745 5742 5741 5739 5738 5735 5732 5731 5731 5730 5728 5723 5718 5714 5711 5706 5699 5693 5689 5685 5683 5681 5679 5683 5692 5699 5702 5707 5713 5718 5721 5722 5723 5726 5730 5733 5735 5737 5738 5738 5737 5740 5743 5745 5745 5745 5745 5745 5744 5744 5745 5745 5745 5746 5745 5745 5744 5744 5743 5742 5741 5740 5739
5750 5750 5750 5750 5750 5749 5749 5748 5747 5747 5746 5746 5745 5745 5744 5744 5742 5742 5741 5740 5740 5739 5737 5734 5732 5732 5730 5727 5724 5722 5722 5722 5722 5719 5712 5705 5699 5692 5684 5675 5668 5661 5657 5656 5658 5666 5677 5686 5692 5699 5705 5709 5712 5715 5717 5720 5723 5725 5727 5729 5730 5730 5731 5734 5737 5738 5738 5739 5738 5738 5738 5739 5739 5739 5740 5740 5740 5740 5740 5739 5738 5737 5736 5736 5735
5744 5744 5743 5743 5742 5742 5741 5741 5740 5739 5738 5738 5737 5737 5737 5736 5735 5734 5734 5733 5732 5732 5730 5727 5725 5723 5722 5720 5715 5712 5711 5712 5712 5709 5703 5696 5688 5678 5666 5656 5649 5642 5638 5640 5647 5656 5666 5676 5683 5690 5696 5700 5703 5707 5710 5713 5716 5718 5721 5723 5724 5724 5726 5728 5729 5730 5731 5732 5731 5731 5732 5733 5734 5734 5735 5735 5735 5735 5735 5734 5733 5732 5732 5731 5730
5736 5736 5736 5735 5734 5733 5733 5732 5732 5731 5730 5730 5729 5729 5729 5729 5728 5727 5726 5726 5725 5724 5722 5720 5717 5715 5715 5712 5708 5704 5702 5702 5701 5698 5691 5684 5677 5665 5652 5645 5641 5635 5632 5637 5646 5653 5661 5671 5678 5683 5689 5695 5697 5700 5703 5707 5710 5713 5715 5717 5718 5719 5720 5722 5722 5723 5724 5725 5724 5725 5726 5727 5728 5729 5729 5730 5730 5730 5729 5729 5728 5728 5728 5727 5726
5729 5729 5728 5727 5726 5725 5724 5723 5723 5722 5722 5721 5721 5721 5722 5721 5721 5720 5719 5719 5718 5716 5715 5713 5710 5708 5707 5705 5702 5699 5696 5695 5695 5692 5684 5677 5670 5661 5649 5642 5640 5638 5639 5647 5655 5657 5661 5668 5676 5679 5683 5688 5692 5695 5699 5702 5705 5707 5709 5710 5712 5713 5714 5715 5716 5717 5717 5718 5718 5719 5721 5722 5723 5724 5724 5725 5725 5725 5724 5724 5723 5723 5723 5723 5722
5721 5720 5719 5718 5718 5717 5716 5715 5715 5714 5713 5713 5713 5713 5714 5713 5713 5713 5712 5712 5711 5709 5708 5706 5703 5701 5700 5698 5696 5694 5692 5691 5689 5688 5683 5676 5671 5665 5657 5651 5646 5644 5646 5653 5660 5661 5661 5666 5672 5677 5680 5684 5688 5691 5693 5695 5698 5700 5702 5704 5706 5707 5708 5709 5710 5710 5711 5711 5712 5714 5716 5717 5718 5718 5719 5720 5720 5720 5719 5719 5719 5719 5719 5718 5718
5713 5712 5711 5710 5710 5709 5708 5708 5707 5706 5706 5706 5706 5706 5706 5706 5706 5706 5705 5705 5704 5703 5702 5700 5697 5694 5693 5693 5691 5688 5688 5688 5686 5684 5681 5677 5671 5667 5664 5661 5658 5654 5651 5652 5657 5661 5664 5667 5671 5675 5679 5682 5685 5686 5688 5690 5692 5694 5696 5698 5700 5701 5702 5703 5704 5704 5705 5706 5707 5709 5711 5712 5712 5713 5714 5715 5715 5715 5715 5714 5714 5714 5714 5714 5714
5705 5704 5703 5703 5702 5702 5701 5700 5700 5699 5699 5698 5698 5698 5698 5698 5698 5698 5698 5698 5697 5696 5696 5694 5692 5689 5687 5687 5686 5683 5682 5683 5682 5680 5678 5676 5672 5667 5665 5664 5664 5664 5661 5660 5663 5666 5668 5669 5671 5674 5676 5678 5680 5682 5684 5685 5687 5688 5691 5693 5694 5695 5696 5697 5698 5698 5699 5700 5702 5704 5705 5706 5707 5707 5709 5710 5710 5710 5710 5710 5710 5710 5710 5710 5709
5698 5696 5696 5695 5695 5694 5694 5693 5693 5692 5692 5691 5691 5691 5691 5692 5691 5691 5691 5691 5691 5690 5689 5688 5687 5684 5682 5681 5681 5679 5677 5677 5677 5676 5675 5674 5671 5667 5664 5663 5662 5663 5663 5663 5664 5665 5666 5667 5669 5670 5672 5674 5676 5677 5679 5680 5681 5683 5685 5687 5689 5690 5691 5692 5692 5693 5694 5695 5697 5699 5700 5701 5702 5703 5703 5704 5705 5705 5705 5705 5705 5705 5705 5705 5705
5691 5690 5689 5688 5688 5688 5687 5687 5686 5686 5685 5685 5685 5685 5685 5685 5685 5685 5684 5684 5684 5684 5683 5682 5681 5680 5678 5677 5677 5676 5673 5672 5671 5671 5671 5671 5669 5666 5664 5662 5660 5659 5659 5659 5660 5661 5662 5664 5665 5666 5668 5670 5671 5673 5675 5676 5677 5679 5681 5682 5684 5685 5686 5686 5687 5688 5689 5690 5692 5693 5695 5696 5697 5698 5698 5699 5700 5700 5700 5700 5701 5701 5700 5700 5700
5684 5683 5683 5682 5682 5682 5681 5681 5681 5680 5680 5679 5679 5679 5678 5678 5678 5678 5678 5678 5677 5677 5677 5677 5677 5675 5674 5673 5672 5672 5670 5668 5666 5665 5666 5666 5666 5664 5663 5662 5660 5658 5657 5658 5658 5658 5660 5661 5662 5663 5665 5666 5668 5670 5671 5672 5674 5675 5676 5677 5679 5679 5680 5681 5682 5682 5683 5685 5686 5688 5690 5691 5692 5693 5693 5694 5695 5695 5695 5695 5696 5696 5696 5695 5695
5677 5677 5676 5676 5676 5676 5676 5676 5675 5675 5674 5674 5673 5673 5672 5672 5672 5672 5671 5671 5671 5671 5671 5671 5672 5671 5669 5668 5667 5667 5666 5664 5663 5662 5661 5660 5660 5660 5660 5660 5660 5659 5658 5658 5658 5659 5659 5659 5660 5661 5662 5663 5665 5666 5667 5669 5670 5671 5671 5672 5673 5674 5675 5676 5676 5677 5678 5679 5681 5683 5684 5686 5687 5688 5689 5689 5689 5690 5690 5690 5690 5690 5690 5690 5690
5671 5670 5670 5670 5669 5669 5669 5670 5670 5669 5669 5668 5668 5667 5666 5666 5665 5665 5665 5665 5665 5665 5665 5666 5666 5666 5665 5664 5663 5662 5661 5659 5659 5658 5657 5656 5656 5656 5656 5656 5657 5657 5657 5657 5658 5658 5658 5658 5658 5659 5660 5661 5662 5663 5663 5664 5665 5666 5666 5667 5668 5669 5670 5670 5671 5672 5673 5674 5676 5678 5679 5681 5683 5683 5684 5684 5684 5684 5684 5685 5685 5685 5685 5685 5685
5664 5664 5664 5663 5663 5662 5663 5663 5663 5663 5663 5662 5662 5661 5661 5660 5659 5659 5659 5659 5659 5659 5660 5661 5661 5661 5661 5660 5660 5658 5656 5655 5654 5654 5653 5652 5652 5653 5653 5654 5654 5654 5654 5655 5656 5656 5656 5656 5656 5657 5657 5657 5658 5658 5659 5659 5660 5660 5661 5662 5663 5664 5665 5666 5667 5668 5669 5670 5672 5673 5675 5676 5678 5678 5679 5679 5679 5679 5679 5679 5680 5680 5680 5680 5680